Regional Weather Roundup
Issued by NWS

Home | Current Version | Previous Version | Graphics & Text | Print | Product List | Glossary Off
Versions: 1 2 3 4 5 6 7 8 9 10 11 12 13 14 15 16 17 18 19 20 21 22 23 24 25 26 27 28 29 30 31 32 33 34 35 36 37 38 39 40 41 42 43 44 45 46 47 48 49 50

500
ASUS43 KMKX 190320
RWRWI

WISCONSIN REGIONAL WEATHER ROUNDUP
NATIONAL WEATHER SERVICE MILWAUKEE/SULLIVAN WI
900 PM CST SAT NOV 18 2017

NOTE: "FAIR" INDICATES FEW OR NO CLOUDS BELOW 12,000 FEET WITH NO
SIGNIFICANT WEATHER AND/OR OBSTRUCTIONS TO VISIBILITY.

WIZ001-002-006>008-014>016-023>028-190400-
NORTHWEST WISCONSIN

CITY           SKY/WX    TMP DP  RH WIND       PRES   REMARKS
SUPERIOR ARPT  CLOUDY    21  11  66 W8        29.96S WCI  11
ASHLAND        CLOUDY    24  15  68 NW9       29.90S WCI  14
HAYWARD        CLOUDY    23  13  65 VRB6G17   29.90S WCI  16
SIREN          CLOUDY    21  12  68 NW7       29.97S WCI  13
CUMBERLAND     MOCLDY    21  12  68 NW15      29.93R WCI   8
RICE LAKE      CLOUDY    24  15  67 W13       29.94R WCI  13
CHETEK         CLOUDY    25  16  67 NW6       29.92R WCI  18
LADYSMITH      CLOUDY    26  16  66 NW15      29.90R WCI  13
EAU CLAIRE     PTCLDY    25  14  63 NW15G23   29.92R WCI  13
MENOMONIE      PTCLDY    26  16  66 NW9       29.94R WCI  16
NEW RICHMOND   CLOUDY    23  14  68 NW16      29.98R WCI  10
OSCEOLA        CLOUDY    23  15  69 W14G20    30.01R WCI  11
$$

WIZ003>005-009-010-017-018-190400-
NORTH CENTRAL WISCONSIN

CITY           SKY/WX    TMP DP  RH WIND       PRES   REMARKS
MANITOWISH WTR CLOUDY    22  22  97 NW8       29.80R WCI  13
ARBOR VITAE    FLURRIES  24  21  87 NW10G16   29.79S WCI  14
WOODRUFF       FLURRIES  24  21  87 NW10G16   29.79S WCI  14
RHINELANDER    CLOUDY   N/A N/A N/A NW14G22   29.79R
EAGLE RIVER    CLOUDY    24  22  91 N13G25    29.77R WCI  13
LAND O LAKES   CLOUDY    24  22  91 NW10G20   29.78S WCI  14
PHILLIPS       CLOUDY    23  16  73 NW8G17    29.83S WCI  14
TOMAHAWK       CLOUDY    24  18  77 NW9G18    29.82R WCI  14
MEDFORD        CLOUDY    25  17  72 NW12G22   29.83R WCI  14
MERRILL        CLOUDY    26  18  73 NW17G24   29.82R WCI  13
$$

WIZ029-030-035-036-043>047-190400-
CENTRAL WISCONSIN

CITY           SKY/WX    TMP DP  RH WIND       PRES   REMARKS
WAUSAU         CLOUDY    28  20  71 NW13G23   29.80R WCI  17
MOSINEE        CLOUDY    28  23  80 NW16G23   29.81R WCI  17
MARSHFIELD     CLOUDY    28  18  66 NW22G31   29.82R WCI  14
STEVENS POINT  CLOUDY    29  20  69 NW12G20   29.81R WCI  19
WAUPACA        CLOUDY    34  26  70 NW9       29.80R WCI  27
WAUTOMA        CLOUDY    33  23  66 NW16      29.81R WCI  23
WISC RAPIDS    CLOUDY    31  20  63 NW14G24   29.83R WCI  21
CAMP DOUGLAS   CLOUDY   N/A N/A N/A NW18G32   29.87R
$$

WIZ011>013-019>022-031-037>040-048>050-190400-
NORTHEAST WISCONSIN

CITY           SKY/WX    TMP DP  RH WIND       PRES   REMARKS
ANTIGO         CLOUDY    27  22  84 NW16G24   29.77R WCI  14
SHAWANO        CLOUDY    34  26  71 N14G21    29.77R WCI  25
OCONTO         CLOUDY    33  24  71 NW9G17    29.74R WCI  25
STURGEON BAY   CLOUDY    34  26  72 NW20G30   29.72R WCI  23
GREEN BAY      CLOUDY    34  27  75 NW10      29.76R WCI  26
MANITOWOC      CLOUDY    36  27  69 NW15G26   29.73R WCI  27
APPLETON       CLOUDY    34  25  69 NW12G21   29.74R WCI  25
CLINTONVILLE   CLOUDY    34  25  69 N12       29.78R WCI  25
OSHKOSH        CLOUDY    34  25  69 NW16G24   29.76R WCI  24
$$

WIZ032>034-041-042-053>061-190400-
SOUTHWEST WISCONSIN

CITY           SKY/WX    TMP DP  RH WIND       PRES   REMARKS
LA CROSSE      PTCLDY    32  20  61 NW20G25   29.91R WCI  20
SPARTA         CLOUDY    31  21  67 NW15      29.90R WCI  20
VIROQUA        PTCLDY    28  22  76 NW15G23   29.88R WCI  17
BOSCOBEL       MOCLDY    35  21  56 N15G23    29.90R WCI  25
PRAIRIE DU CHI CLEAR     32  20  61 NW14      29.93R WCI  22
PLATTEVILLE    CLOUDY    33  27  78 NW17G23   29.87R WCI  23
$$

WIZ056-057-062-063-064-067-068-190400-
SOUTH CENTRAL WISCONSIN

CITY           SKY/WX    TMP DP  RH WIND       PRES   REMARKS
REEDSBURG      CLOUDY    32  21  63 NW16G30   29.85R WCI  21
BARABOO/DELLS  CLOUDY    32  21  64 NW16G25   29.83R WCI  21
LONE ROCK      CLOUDY    34  24  67 NW15G28   29.87R WCI  24
MINERAL POINT  CLOUDY    36  30  80 NW9       29.84R WCI  29
MADISON        CLOUDY    34  24  67 NW18G31   29.81R WCI  23
MIDDLETON      CLOUDY    35  27  73 NW18G26   29.82R WCI  24
WATERTOWN      CLOUDY    35  28  75 NW13G21   29.77R WCI  26
MONROE         CLOUDY    34  28  80 NW13G22   29.81R WCI  25
JANESVILLE     NOT AVBL
$$

WIZ051-052-058>065-066-070>072-190400-
SOUTHEAST WISCONSIN

CITY           SKY/WX    TMP DP  RH WIND       PRES   REMARKS
MILWAUKEE      CLOUDY    39  28  64 N13G23    29.74R WCI  31
WAUKESHA       CLOUDY    34  27  75 NW21G26   29.75R WCI  22
MILWAUKEE/TIMM CLOUDY    36  27  69 NW13      29.75R WCI  27
RACINE         CLOUDY    38  28  67 NW10G17   29.76R WCI  31
BURLINGTON     CLOUDY    38  33  83 NW12      29.76R WCI  31
KENOSHA        CLOUDY    38  28  67 NW10G24   29.75R WCI  31
FOND DU LAC    CLOUDY    35  25  66 NW15      29.77R WCI  25
SHEBOYGAN      CLOUDY    36  29  75 NW13G23   29.73R WCI  27
WEST BEND      CLOUDY    34  28  80 NW16      29.74R WCI  23
JUNEAU         CLOUDY    33  26  73 NW17G31   29.78R WCI  23
$$

LSZ147-162-190400-
LAKE SUPERIOR

STATION/POSITION TIME  TEMP    WIND        PRES    WAVE
                       AIR SEA DIR/SP/G            HT/PER
                 (UTC) (F)     (DEG/KT/KT) (MB)    (FT/S)
DEVILS ISLAND    0300   24     300/ 22/ 25 1013.4R
SAXON HARBOR     0230   28     300/ 14/ 21 1011.5S
$$

LMZ867-665-643>646-190400-
LAKE MICHIGAN

STATION/POSITION TIME  TEMP    WIND        PRES    WAVE
                       AIR SEA DIR/SP/G            HT/PER
                 (UTC) (F)     (DEG/KT/KT) (MB)    (FT/S)
N MID LAKE BUOY  0250   35 48  310/ 21/ 27 1005.2R   7/ 6
NORTHPORT PIER   0236   35     340/ 27/ 36 1005.4R
SHEBOYGAN LAKESH 0300   37     320/ 11/ 13 1007.3R
PORT WASHINGTON  0230   38     320/  7/ 15 1007.8R
MILWAUKEE LAKESH 0250   38     330/ 11/ 13   N/A
S MID LAKE BUOY  0250   41 49  340/ 25/ 31 1005.4R  10/ 8
KENOSHA   LAKESH 0300   38     330/ 15/ 23 1007.8
$$

TC  - TEMPERATURE IN CELSIUS
VSB - VISIBILITY IN STATUTE MILES
WCI - WIND CHILL INDEX
HX  - HEAT INDEX





USA.gov is the U.S. government's official web portal to all federal, state and local government web resources and services.